Location: Asheville, NC
(35.6000°N, 82.5500°W)
Time: 06:18:57

NO-84 - Pass Details

Date: 18 March 2018
Orbit: 339 x 558 km, 55.0° (Epoch: 15 March)

Event Time Altitude Azimuth Distance (km) Brightness Sun altitude
Exits shadow 06:52:12 10° 232° (SW) 1,566 ? -9.9°
Drops below altitude 10° 06:52:13 10° 232° (SW) 1,566 ? -9.9°
Sets 06:55:59 0° 188° (S) 2,351 ? -9.1°
